Time,TemperatureF,DewpointF,PressureIn,WindDirection,WindDirectionDegrees,WindSpeedMPH,WindSpeedGustMPH,Humidity,HourlyPrecipIn,Conditions,Clouds,dailyrainin,SoftwareType,DateUTC
2013-12-04 00:22:00,40.0,40.0,-100.00,North,350,3.0,4.0,99,0.00,,,-99.99,,2013-12-04 06:22:00,
2013-12-04 00:42:00,40.0,40.0,-100.00,North,0,2.0,3.0,99,0.00,,,-99.99,,2013-12-04 06:42:00,
2013-12-04 01:21:00,40.0,40.0,-100.00,NNW,330,1.0,2.0,99,0.00,,,-99.99,,2013-12-04 07:21:00,
2013-12-04 01:42:00,40.0,40.0,-100.00,North,350,2.0,3.0,99,0.00,,,-99.99,,2013-12-04 07:42:00,
2013-12-04 02:21:00,40.0,39.0,-100.00,North,0,2.0,2.0,99,0.00,,,-99.99,,2013-12-04 08:21:00,
2013-12-04 02:42:00,39.0,39.0,-100.00,North,355,1.0,3.0,99,0.00,,,-99.99,,2013-12-04 08:42:00,
2013-12-04 03:22:00,39.0,39.0,-100.00,NE,45,1.0,1.0,99,0.00,,,-99.99,,2013-12-04 09:22:00,
2013-12-04 03:53:00,39.0,39.0,-100.00,ENE,65,0.0,1.0,99,0.00,,,-99.99,,2013-12-04 09:53:00,
2013-12-04 04:23:00,39.0,39.0,-100.00,North,5,0.0,0.0,99,0.00,,,-99.99,,2013-12-04 10:23:00,
2013-12-04 04:42:00,39.0,39.0,-100.00,NNW,345,1.0,2.0,99,0.00,,,-99.99,,2013-12-04 10:42:00,
2013-12-04 05:22:00,39.0,39.0,-100.00,North,350,2.0,3.0,99,0.00,,,-99.99,,2013-12-04 11:22:00,
2013-12-04 05:42:00,39.0,39.0,-100.00,North,0,2.0,4.0,99,0.00,,,-99.99,,2013-12-04 11:42:00,
2013-12-04 06:22:00,38.0,38.0,-100.00,ENE,60,3.0,3.0,99,0.00,,,-99.99,,2013-12-04 12:22:00,
2013-12-04 06:42:00,39.0,39.0,-100.00,ESE,110,3.0,4.0,99,0.00,,,-99.99,,2013-12-04 12:42:00,
2013-12-04 07:22:00,39.0,39.0,-100.00,ENE,75,1.0,1.0,99,0.00,,,-99.99,,2013-12-04 13:22:00,
2013-12-04 07:42:00,39.0,39.0,-100.00,East,100,3.0,4.0,99,0.00,,,-99.99,,2013-12-04 13:42:00,
2013-12-04 08:21:00,39.0,39.0,-100.00,SE,130,2.0,4.0,99,0.00,,,-99.99,,2013-12-04 14:21:00,
2013-12-04 08:42:00,39.0,39.0,-100.00,East,90,2.0,3.0,99,0.00,,,-99.99,,2013-12-04 14:42:00,
2013-12-04 09:22:00,40.0,40.0,-100.00,ESE,105,0.0,1.0,99,0.00,,,-99.99,,2013-12-04 15:22:00,
2013-12-04 09:43:00,40.0,40.0,-100.00,SSW,195,0.0,0.0,99,0.00,,,-99.99,,2013-12-04 15:43:00,
2013-12-04 10:23:00,40.0,40.0,-100.00,West,265,2.0,3.0,99,0.00,,,-99.99,,2013-12-04 16:23:00,
2013-12-04 10:43:00,41.0,41.0,-100.00,West,275,2.0,3.0,99,0.00,,,-99.99,,2013-12-04 16:43:00,
2013-12-04 11:22:00,40.0,40.0,-100.00,WNW,285,2.0,6.0,100,0.00,,,-99.99,,2013-12-04 17:22:00,
2013-12-04 11:42:00,40.0,40.0,-100.00,WNW,300,1.0,4.0,99,0.00,,,-99.99,,2013-12-04 17:42:00,
2013-12-04 12:22:00,42.0,42.0,-100.00,South,170,0.0,1.0,99,0.00,,,-99.99,,2013-12-04 18:22:00,
2013-12-04 12:42:00,42.0,42.0,-100.00,SW,220,3.0,4.0,99,0.00,,,-99.99,,2013-12-04 18:42:00,
2013-12-04 13:21:00,41.0,41.0,-100.00,West,265,8.0,13.0,99,0.03,,,-99.99,,2013-12-04 19:21:00,
2013-12-04 13:42:00,40.0,40.0,-100.00,West,260,11.0,14.0,99,0.00,,,-99.99,,2013-12-04 19:42:00,
2013-12-04 14:22:00,37.0,37.0,-100.00,West,275,12.0,19.0,99,0.00,,,-99.99,,2013-12-04 20:22:00,
2013-12-04 14:42:00,37.0,36.0,-100.00,NW,305,12.0,22.0,99,0.00,,,-99.99,,2013-12-04 20:42:00,
2013-12-04 15:22:00,32.0,32.0,-100.00,West,280,20.0,26.0,99,0.00,,,-99.99,,2013-12-04 21:22:00,
2013-12-04 15:44:00,31.0,31.0,-100.00,West,275,14.0,26.0,99,0.00,,,-99.99,,2013-12-04 21:44:00,
2013-12-04 16:23:00,31.0,31.0,-100.00,West,260,11.0,21.0,97,0.00,,,-99.99,,2013-12-04 22:23:00,
2013-12-04 16:43:00,31.0,30.0,-100.00,West,270,12.0,24.0,96,0.00,,,-99.99,,2013-12-04 22:43:00,
2013-12-04 17:22:00,29.0,27.0,-100.00,West,265,14.0,26.0,91,0.00,,,-99.99,,2013-12-04 23:22:00,
2013-12-04 17:42:00,29.0,26.0,-100.00,West,265,14.0,22.0,89,0.00,,,-99.99,,2013-12-04 23:42:00,
2013-12-04 18:22:00,27.0,24.0,-100.00,West,275,16.0,24.0,86,0.00,,,-99.99,,2013-12-05 00:22:00,
2013-12-04 18:42:00,27.0,23.0,-100.00,West,275,13.0,22.0,86,0.00,,,-99.99,,2013-12-05 00:42:00,
2013-12-04 19:21:00,26.0,21.0,-100.00,West,270,21.0,29.0,84,0.00,,,-99.99,,2013-12-05 01:21:00,
2013-12-04 19:42:00,25.0,21.0,-100.00,West,270,12.0,29.0,83,0.00,,,-99.99,,2013-12-05 01:42:00,
2013-12-04 20:22:00,25.0,20.0,-100.00,West,270,11.0,26.0,80,0.00,,,-99.99,,2013-12-05 02:22:00,
2013-12-04 21:21:00,23.0,17.0,-100.00,West,280,17.0,24.0,75,0.00,,,-99.99,,2013-12-05 03:21:00,
2013-12-04 21:43:00,23.0,16.0,-100.00,West,280,14.0,22.0,75,0.00,,,-99.99,,2013-12-05 03:43:00,
2013-12-04 22:23:00,22.0,15.0,-100.00,WNW,290,14.0,26.0,75,0.00,,,-99.99,,2013-12-05 04:23:00,
2013-12-04 22:43:00,22.0,15.0,-100.00,WNW,290,16.0,22.0,74,0.00,,,-99.99,,2013-12-05 04:43:00,
2013-12-04 23:23:00,21.0,14.0,-100.00,WNW,285,19.0,25.0,74,0.00,,,-99.99,,2013-12-05 05:23:00,
2013-12-04 23:43:00,21.0,14.0,-100.00,WNW,295,17.0,29.0,74,0.00,,,-99.99,,2013-12-05 05:43:00,